User: anonymous   Login
Location: Banksville Park
(38.5557°N, 75.1182°W)
Time: 17:57:43
(UTC+00:00)
Language:

CZ-4B R/B - Orbit

View from above orbital plane
View from above orbital plane
View from above satellite
View from above satellite

Ground track
Ground track

The orbit data is extracted from the following two-line orbital elements,

1 33410U 08053C   21162.85893402  .00000620  00000-0  49152-4 0  9991
2 33410  97.8896 159.2193 0114981 354.8975   5.1066 14.99532446688620
Epoch (UTC): 11 June 2021 20:36:51
Eccentricity: 0.0114981
inclination: 97.8896°
perigee height: 488 km
apogee height: 648 km
right ascension of ascending node: 159.2193°
argument of perigee: 354.8975°
revolutions per day: 14.99532446
mean anomaly at epoch: 5.1066°
orbit number at epoch: 68862

The dashed part of the orbit path shows where the satellite is in the earth's shadow,  

DLR